time, beta470, beta532, beta650
yyyy/mm/dd HH:MM:SS.fff, counts, counts, counts
2023/06/08 00:00:00.879, 147, 205, 134
2023/06/08 00:00:01.999, 150, 225, 133
2023/06/08 00:00:03.135, 170, 213, 141
2023/06/08 00:00:04.271, 151, 237, 132
2023/06/08 00:00:05.391, 152, 202, 135
2023/06/08 00:00:06.527, 154, 219, 143
2023/06/08 00:00:07.663, 151, 211, 142
2023/06/08 00:00:08.783, 149, 224, 134
2023/06/08 00:00:09.919, 143, 215, 142
2023/06/08 00:00:11.055, 150, 210, 136
2023/06/08 00:00:12.175, 147, 215, 134
2023/06/08 00:00:13.310, 151, 225, 141
2023/06/08 00:00:14.447, 155, 271, 133
2023/06/08 00:00:15.566, 147, 221, 137
2023/06/08 00:00:16.702, 153, 210, 136
2023/06/08 00:00:17.838, 153, 212, 135
2023/06/08 00:00:18.958, 150, 214, 136
2023/06/08 00:00:20.094, 162, 226, 136
2023/06/08 00:00:21.230, 162, 214, 130
2023/06/08 00:00:22.350, 151, 216, 135
2023/06/08 00:00:23.486, 149, 208, 153
2023/06/08 00:00:24.622, 158, 226, 141
2023/06/08 00:00:25.742, 154, 221, 132
2023/06/08 00:00:26.878, 165, 233, 133
2023/06/08 00:00:27.997, 169, 230, 154
2023/06/08 00:00:29.134, 159, 219, 144
2023/06/08 00:00:30.269, 167, 238, 146
2023/06/08 00:00:31.390, 170, 245, 146
2023/06/08 00:00:32.526, 168, 240, 151
2023/06/08 00:00:33.661, 173, 231, 150
2023/06/08 00:00:34.781, 163, 225, 142
2023/06/08 00:00:35.917, 164, 227, 176
2023/06/08 00:00:37.053, 162, 237, 147
2023/06/08 00:00:38.173, 169, 251, 146
2023/06/08 00:00:39.309, 204, 230, 155
2023/06/08 00:00:40.445, 183, 244, 159
2023/06/08 00:00:41.565, 167, 261, 151
2023/06/08 00:00:42.700, 174, 231, 151
2023/06/08 00:00:43.837, 167, 239, 149
2023/06/08 00:00:44.957, 170, 237, 150
2023/06/08 00:00:46.093, 169, 258, 145
2023/06/08 00:00:47.229, 159, 244, 147
2023/06/08 00:00:48.348, 161, 234, 149
2023/06/08 00:00:49.484, 161, 274, 149
2023/06/08 00:00:50.620, 156, 235, 148
2023/06/08 00:00:51.740, 164, 239, 142
2023/06/08 00:00:52.876, 164, 232, 144
2023/06/08 00:00:54.012, 161, 231, 145
2023/06/08 00:00:55.132, 167, 220, 143
2023/06/08 00:00:56.268, 170, 220, 140
2023/06/08 00:00:57.388, 166, 229, 147
2023/06/08 00:00:58.524, 166, 238, 143
2023/06/08 00:00:59.660, 169, 232, 142
2023/06/08 00:01:00.780, 166, 224, 142
2023/06/08 00:01:01.915, 164, 221, 141
2023/06/08 00:01:03.052, 155, 229, 138
2023/06/08 00:01:04.171, 163, 221, 145
2023/06/08 00:01:05.307, 161, 217, 148
2023/06/08 00:01:06.443, 162, 221, 141
2023/06/08 00:01:07.564, 166, 212, 144
2023/06/08 00:01:08.699, 153, 209, 138
2023/06/08 00:01:09.835, 155, 223, 133
2023/06/08 00:01:10.955, 155, 220, 147
2023/06/08 00:01:12.091, 152, 223, 137
2023/06/08 00:01:13.227, 145, 214, 131
2023/06/08 00:01:14.347, 148, 200, 150
2023/06/08 00:01:15.483, 149, 205, 183
2023/06/08 00:01:16.618, 153, 210, 134
2023/06/08 00:01:17.739, 152, 220, 128
2023/06/08 00:01:18.875, 147, 215, 136
2023/06/08 00:01:20.011, 145, 206, 135
2023/06/08 00:01:21.131, 156, 205, 128
2023/06/08 00:01:22.266, 142, 200, 127
2023/06/08 00:01:23.402, 144, 203, 130
2023/06/08 00:01:24.522, 145, 218, 131
2023/06/08 00:01:25.658, 158, 212, 130
2023/06/08 00:01:26.778, 149, 207, 127
2023/06/08 00:01:27.914, 144, 203, 131
2023/06/08 00:01:29.050, 155, 195, 126
2023/06/08 00:01:30.170, 147, 198, 131
2023/06/08 00:01:31.306, 147, 208, 127
2023/06/08 00:01:32.441, 160, 205, 129
2023/06/08 00:01:33.562, 153, 201, 124
2023/06/08 00:01:34.698, 148, 206, 124
2023/06/08 00:01:35.834, 146, 195, 127
2023/06/08 00:01:36.953, 145, 195, 124
2023/06/08 00:01:38.089, 143, 190, 129
2023/06/08 00:01:39.225, 139, 195, 138
2023/06/08 00:01:40.345, 135, 189, 124
2023/06/08 00:01:41.481, 133, 193, 120
2023/06/08 00:01:42.617, 133, 188, 118
2023/06/08 00:01:43.737, 135, 207, 122
2023/06/08 00:01:44.873, 140, 185, 123
2023/06/08 00:01:46.009, 137, 185, 123
2023/06/08 00:01:47.129, 136, 183, 116
2023/06/08 00:01:48.265, 136, 200, 119
2023/06/08 00:01:49.385, 133, 207, 112
2023/06/08 00:01:50.520, 131, 188, 118
2023/06/08 00:01:51.656, 134, 184, 126
2023/06/08 00:01:52.777, 132, 185, 120
2023/06/08 00:01:53.912, 136, 179, 121
2023/06/08 00:01:55.048, 131, 177, 113
2023/06/08 00:01:56.168, 131, 174, 345
2023/06/08 00:01:57.304, 130, 174, 116
2023/06/08 00:01:58.440, 129, 179, 113
2023/06/08 00:01:59.560, 133, 172, 117
2023/06/08 00:02:00.696, 132, 171, 114
2023/06/08 00:02:01.832, 139, 178, 112
2023/06/08 00:02:02.952, 126, 179, 114
2023/06/08 00:02:04.088, 130, 174, 110
2023/06/08 00:02:05.224, 127, 170, 111
2023/06/08 00:02:06.344, 126, 174, 111
2023/06/08 00:02:07.480, 126, 166, 113
2023/06/08 00:02:08.615, 128, 168, 115
2023/06/08 00:02:09.735, 134, 176, 112
2023/06/08 00:02:10.871, 126, 173, 112
2023/06/08 00:02:12.007, 125, 172, 109
2023/06/08 00:02:13.127, 125, 169, 110
2023/06/08 00:02:14.263, 126, 168, 118
2023/06/08 00:02:15.399, 126, 165, 108
2023/06/08 00:02:16.519, 127, 166, 107
2023/06/08 00:02:17.655, 131, 161, 109
2023/06/08 00:02:18.791, 126, 166, 108
2023/06/08 00:02:19.911, 127, 157, 106
2023/06/08 00:02:21.047, 124, 160, 107
2023/06/08 00:02:22.167, 124, 162, 103
2023/06/08 00:02:23.303, 123, 166, 109
2023/06/08 00:02:24.438, 121, 161, 111
2023/06/08 00:02:25.559, 127, 158, 101
2023/06/08 00:02:26.694, 124, 160, 106
2023/06/08 00:02:27.830, 117, 155, 105
2023/06/08 00:02:28.950, 114, 155, 108
2023/06/08 00:02:30.086, 120, 156, 105
2023/06/08 00:02:31.222, 120, 161, 107
2023/06/08 00:02:32.342, 117, 158, 104
2023/06/08 00:02:33.478, 116, 157, 103
2023/06/08 00:02:34.614, 117, 158, 101
2023/06/08 00:02:35.734, 122, 156, 103
2023/06/08 00:02:36.870, 117, 154, 101
2023/06/08 00:02:37.990, 118, 152, 103
2023/06/08 00:02:39.126, 113, 151, 103
2023/06/08 00:02:40.262, 115, 161, 105
2023/06/08 00:02:41.382, 114, 154, 106
2023/06/08 00:02:42.517, 118, 153, 103
2023/06/08 00:02:43.653, 115, 153, 98
2023/06/08 00:02:44.773, 112, 153, 101
2023/06/08 00:02:45.909, 120, 148, 100
2023/06/08 00:02:47.045, 112, 150, 98
2023/06/08 00:02:48.165, 114, 152, 100
2023/06/08 00:02:49.301, 120, 146, 102
2023/06/08 00:02:50.436, 138, 145, 120
2023/06/08 00:02:51.557, 115, 150, 98
2023/06/08 00:02:52.692, 118, 148, 100
2023/06/08 00:02:53.813, 111, 142, 98
2023/06/08 00:02:54.949, 109, 142, 97
2023/06/08 00:02:56.085, 116, 143, 99
2023/06/08 00:02:57.203, 113, 147, 97
2023/06/08 00:02:58.341, 112, 142, 102
2023/06/08 00:02:59.476, 115, 140, 99
2023/06/08 00:03:00.596, 112, 145, 100
2023/06/08 00:03:01.732, 115, 145, 102
2023/06/08 00:03:02.852, 114, 146, 98
2023/06/08 00:03:03.988, 113, 148, 98
2023/06/08 00:03:05.124, 114, 151, 99
2023/06/08 00:03:06.244, 111, 143, 116
2023/06/08 00:03:07.380, 118, 144, 95
2023/06/08 00:03:08.500, 110, 140, 93
2023/06/08 00:03:09.636, 110, 141, 95
2023/06/08 00:03:10.772, 112, 140, 98
2023/06/08 00:03:11.892, 113, 140, 102
2023/06/08 00:03:13.028, 110, 145, 99
2023/06/08 00:03:14.164, 111, 140, 102
2023/06/08 00:03:15.283, 109, 134, 96
2023/06/08 00:03:16.419, 111, 140, 96
2023/06/08 00:03:17.539, 109, 141, 97
2023/06/08 00:03:18.675, 108, 139, 96
2023/06/08 00:03:19.811, 109, 144, 96
2023/06/08 00:03:20.931, 109, 139, 95
2023/06/08 00:03:22.067, 110, 137, 96
2023/06/08 00:03:23.187, 110, 131, 94
2023/06/08 00:03:24.323, 113, 137, 97
2023/06/08 00:03:25.458, 110, 133, 93
2023/06/08 00:03:26.579, 107, 136, 99
2023/06/08 00:03:27.715, 109, 136, 93
2023/06/08 00:03:28.835, 107, 133, 93
2023/06/08 00:03:29.970, 108, 135, 94
2023/06/08 00:03:31.107, 109, 140, 89
2023/06/08 00:03:32.226, 109, 133, 90
2023/06/08 00:03:33.362, 102, 136, 91
2023/06/08 00:03:34.482, 106, 137, 92
2023/06/08 00:03:35.618, 104, 132, 92
2023/06/08 00:03:36.754, 109, 129, 88
2023/06/08 00:03:37.874, 105, 132, 90
2023/06/08 00:03:39.010, 105, 135, 87
2023/06/08 00:03:40.130, 104, 134, 91
2023/06/08 00:03:41.266, 105, 135, 89
2023/06/08 00:03:42.402, 104, 133, 92
2023/06/08 00:03:43.522, 102, 137, 90
2023/06/08 00:03:44.658, 109, 133, 94
2023/06/08 00:03:45.778, 106, 133, 91
2023/06/08 00:03:46.913, 105, 132, 88
2023/06/08 00:03:48.049, 104, 125, 91
2023/06/08 00:03:49.169, 105, 134, 92
2023/06/08 00:03:50.305, 104, 129, 93
2023/06/08 00:03:51.425, 106, 129, 88
2023/06/08 00:03:52.561, 104, 133, 90
2023/06/08 00:03:53.696, 106, 128, 90
2023/06/08 00:03:54.817, 105, 131, 89
2023/06/08 00:03:55.953, 101, 127, 88
2023/06/08 00:03:57.073, 104, 132, 89
2023/06/08 00:03:58.208, 103, 130, 90
2023/06/08 00:03:59.345, 100, 125, 88
2023/06/08 00:04:00.465, 103, 128, 87
2023/06/08 00:04:01.601, 101, 132, 88
2023/06/08 00:04:02.721, 103, 130, 89
2023/06/08 00:04:03.856, 101, 132, 89
2023/06/08 00:04:04.992, 101, 127, 88
2023/06/08 00:04:06.112, 102, 129, 86
2023/06/08 00:04:07.248, 101, 127, 89
2023/06/08 00:04:08.384, 103, 129, 89
2023/06/08 00:04:09.504, 100, 130, 89
2023/06/08 00:04:10.640, 102, 137, 88
2023/06/08 00:04:11.760, 102, 125, 91
2023/06/08 00:04:12.896, 104, 127, 86
2023/06/08 00:04:14.032, 105, 123, 89
2023/06/08 00:04:15.152, 99, 129, 92
2023/06/08 00:04:16.288, 100, 123, 85
2023/06/08 00:04:17.408, 99, 122, 84
2023/06/08 00:04:18.544, 100, 121, 85
2023/06/08 00:04:19.664, 99, 126, 86
2023/06/08 00:04:20.800, 99, 124, 87
2023/06/08 00:04:21.935, 100, 123, 84
2023/06/08 00:04:23.055, 102, 128, 83
2023/06/08 00:04:24.190, 97, 125, 84
2023/06/08 00:04:25.311, 101, 125, 85
2023/06/08 00:04:26.446, 100, 122, 88
2023/06/08 00:04:27.567, 98, 128, 84
2023/06/08 00:04:28.703, 98, 126, 87
2023/06/08 00:04:29.823, 98, 120, 85
2023/06/08 00:04:30.958, 96, 124, 86
2023/06/08 00:04:32.095, 97, 123, 84
2023/06/08 00:04:33.214, 97, 126, 83
2023/06/08 00:04:34.351, 97, 120, 83
2023/06/08 00:04:35.470, 99, 126, 84
2023/06/08 00:04:36.606, 99, 122, 86
2023/06/08 00:04:37.726, 98, 118, 86
2023/06/08 00:04:38.862, 97, 118, 84
2023/06/08 00:04:39.981, 103, 122, 86
2023/06/08 00:04:41.118, 101, 121, 84
2023/06/08 00:04:42.254, 98, 120, 85
2023/06/08 00:04:43.374, 96, 119, 82
2023/06/08 00:04:44.509, 98, 122, 86
2023/06/08 00:04:45.630, 100, 118, 86
2023/06/08 00:04:46.766, 96, 118, 85
2023/06/08 00:04:47.886, 99, 121, 84
2023/06/08 00:04:49.022, 99, 121, 83
2023/06/08 00:04:50.142, 96, 120, 86
2023/06/08 00:04:51.278, 103, 119, 83
2023/06/08 00:04:52.414, 96, 121, 85
2023/06/08 00:04:53.533, 96, 119, 84
2023/06/08 00:04:54.669, 96, 118, 88
2023/06/08 00:04:55.789, 97, 120, 84
2023/06/08 00:04:56.924, 96, 118, 87
2023/06/08 00:04:58.045, 96, 121, 85
2023/06/08 00:04:59.181, 95, 116, 86
2023/06/08 00:05:00.317, 95, 119, 86
2023/06/08 00:05:01.436, 97, 118, 80
2023/06/08 00:05:02.573, 94, 114, 81
2023/06/08 00:05:03.693, 94, 115, 80
2023/06/08 00:05:04.829, 95, 116, 81
2023/06/08 00:05:05.949, 95, 115, 83
2023/06/08 00:05:07.084, 92, 114, 79
2023/06/08 00:05:08.205, 95, 115, 80
2023/06/08 00:05:09.340, 96, 116, 81
2023/06/08 00:05:10.476, 98, 114, 79
2023/06/08 00:05:11.596, 97, 113, 82
2023/06/08 00:05:12.732, 95, 116, 84
2023/06/08 00:05:13.852, 94, 116, 80
2023/06/08 00:05:14.988, 94, 113, 83
2023/06/08 00:05:16.108, 92, 115, 82
2023/06/08 00:05:17.244, 94, 115, 83
2023/06/08 00:05:18.364, 94, 118, 80
2023/06/08 00:05:19.500, 93, 113, 84
2023/06/08 00:05:20.619, 93, 119, 83
2023/06/08 00:05:21.756, 94, 116, 83
2023/06/08 00:05:22.892, 94, 113, 83
2023/06/08 00:05:24.012, 92, 113, 79
2023/06/08 00:05:25.147, 95, 117, 81
2023/06/08 00:05:26.267, 94, 114, 79
2023/06/08 00:05:27.403, 97, 117, 83
2023/06/08 00:05:28.523, 92, 113, 80
2023/06/08 00:05:29.659, 92, 117, 83
2023/06/08 00:05:30.779, 95, 113, 78
2023/06/08 00:05:31.915, 92, 112, 82
2023/06/08 00:05:33.035, 93, 112, 78
2023/06/08 00:05:34.171, 97, 114, 81
2023/06/08 00:05:35.307, 92, 113, 80
2023/06/08 00:05:36.427, 92, 116, 82
2023/06/08 00:05:37.563, 94, 113, 79
2023/06/08 00:05:38.682, 91, 113, 81
2023/06/08 00:05:39.819, 92, 113, 78
2023/06/08 00:05:40.938, 90, 113, 83
2023/06/08 00:05:42.075, 94, 111, 78
2023/06/08 00:05:43.194, 93, 113, 83
2023/06/08 00:05:44.330, 95, 111, 81
2023/06/08 00:05:45.466, 94, 114, 78
2023/06/08 00:05:46.586, 94, 109, 81
2023/06/08 00:05:47.722, 93, 112, 82
2023/06/08 00:05:48.842, 92, 112, 80
2023/06/08 00:05:49.978, 91, 113, 81
2023/06/08 00:05:51.098, 96, 112, 79
2023/06/08 00:05:52.234, 95, 115, 81
2023/06/08 00:05:53.354, 93, 112, 79
2023/06/08 00:05:54.490, 93, 113, 81
2023/06/08 00:05:55.625, 91, 113, 80
2023/06/08 00:05:56.746, 91, 111, 81
2023/06/08 00:05:57.882, 90, 110, 78
2023/06/08 00:05:59.001, 93, 115, 77
2023/06/08 00:06:00.137, 93, 111, 81
2023/06/08 00:06:01.257, 90, 114, 79
2023/06/08 00:06:02.393, 93, 114, 79
2023/06/08 00:06:03.513, 94, 110, 79
2023/06/08 00:06:04.649, 91, 111, 78
2023/06/08 00:06:05.785, 93, 111, 81
2023/06/08 00:06:06.905, 92, 112, 79
2023/06/08 00:06:08.041, 98, 109, 80
2023/06/08 00:06:09.161, 92, 114, 80
2023/06/08 00:06:10.297, 94, 114, 76
2023/06/08 00:06:11.417, 91, 112, 81
2023/06/08 00:06:12.553, 92, 110, 81
2023/06/08 00:06:13.673, 93, 109, 80
2023/06/08 00:06:14.808, 92, 111, 80
2023/06/08 00:06:15.944, 90, 108, 79
2023/06/08 00:06:17.064, 92, 110, 75
2023/06/08 00:06:18.200, 92, 110, 83
2023/06/08 00:06:19.320, 90, 112, 78
2023/06/08 00:06:20.456, 91, 112, 79
2023/06/08 00:06:21.576, 91, 109, 79
2023/06/08 00:06:22.712, 94, 113, 79
2023/06/08 00:06:23.832, 91, 110, 89
2023/06/08 00:06:24.968, 93, 114, 79
2023/06/08 00:06:26.088, 92, 110, 76
2023/06/08 00:06:27.224, 91, 109, 78
2023/06/08 00:06:28.359, 92, 110, 78
2023/06/08 00:06:29.479, 91, 109, 79
2023/06/08 00:06:30.615, 89, 108, 78
2023/06/08 00:06:31.735, 92, 110, 79
2023/06/08 00:06:32.871, 92, 109, 83
2023/06/08 00:06:33.991, 92, 110, 79
2023/06/08 00:06:35.127, 90, 111, 80
2023/06/08 00:06:36.247, 92, 110, 75
2023/06/08 00:06:37.383, 90, 108, 79
2023/06/08 00:06:38.503, 91, 109, 76
2023/06/08 00:06:39.639, 92, 108, 76
2023/06/08 00:06:40.775, 88, 111, 75
2023/06/08 00:06:41.895, 93, 107, 75
2023/06/08 00:06:43.031, 90, 109, 77
2023/06/08 00:06:44.151, 90, 106, 77
2023/06/08 00:06:45.287, 91, 110, 78
2023/06/08 00:06:46.406, 90, 112, 79
2023/06/08 00:06:47.542, 92, 108, 76
2023/06/08 00:06:48.662, 88, 109, 79
2023/06/08 00:06:49.798, 91, 117, 79
2023/06/08 00:06:50.934, 91, 109, 77
2023/06/08 00:06:52.054, 89, 108, 76
2023/06/08 00:06:53.190, 91, 110, 78
2023/06/08 00:06:54.310, 92, 108, 78
2023/06/08 00:06:55.445, 113, 107, 80
2023/06/08 00:06:56.566, 135, 107, 78
2023/06/08 00:06:57.702, 91, 107, 77
2023/06/08 00:06:58.837, 90, 109, 77
2023/06/08 00:06:59.958, 92, 108, 80
2023/06/08 00:07:01.094, 91, 105, 80
2023/06/08 00:07:02.213, 93, 109, 78
2023/06/08 00:07:03.349, 91, 106, 77
2023/06/08 00:07:04.469, 91, 109, 80
2023/06/08 00:07:05.605, 91, 105, 78
2023/06/08 00:07:06.725, 93, 107, 78
2023/06/08 00:07:07.860, 89, 109, 81
2023/06/08 00:07:08.997, 91, 107, 78
2023/06/08 00:07:10.117, 91, 108, 79
2023/06/08 00:07:11.253, 88, 108, 78
2023/06/08 00:07:12.373, 90, 106, 76
2023/06/08 00:07:13.509, 89, 105, 78
2023/06/08 00:07:14.629, 89, 106, 78
2023/06/08 00:07:15.765, 90, 106, 76
2023/06/08 00:07:16.884, 90, 106, 78
2023/06/08 00:07:18.021, 90, 106, 78
2023/06/08 00:07:19.156, 90, 108, 78
2023/06/08 00:07:20.276, 90, 104, 77
2023/06/08 00:07:21.412, 90, 109, 75
2023/06/08 00:07:22.532, 88, 104, 77
2023/06/08 00:07:23.668, 89, 108, 78
2023/06/08 00:07:24.788, 91, 108, 75
2023/06/08 00:07:25.923, 90, 105, 76
2023/06/08 00:07:27.044, 91, 107, 76
2023/06/08 00:07:28.180, 88, 107, 77
2023/06/08 00:07:29.300, 91, 108, 74
2023/06/08 00:07:30.436, 89, 104, 79
2023/06/08 00:07:31.556, 88, 106, 79
2023/06/08 00:07:32.692, 86, 116, 78
2023/06/08 00:07:33.827, 89, 108, 77
2023/06/08 00:07:34.947, 91, 105, 80
2023/06/08 00:07:36.084, 92, 108, 80
2023/06/08 00:07:37.203, 91, 106, 78
2023/06/08 00:07:38.339, 89, 107, 77
2023/06/08 00:07:39.459, 93, 106, 78
2023/06/08 00:07:40.595, 89, 104, 77
2023/06/08 00:07:41.715, 90, 105, 77
2023/06/08 00:07:42.851, 91, 106, 77
2023/06/08 00:07:43.987, 89, 106, 74
2023/06/08 00:07:45.107, 86, 108, 78
2023/06/08 00:07:46.242, 90, 105, 78
2023/06/08 00:07:47.363, 91, 105, 78
2023/06/08 00:07:48.499, 90, 105, 76
2023/06/08 00:07:49.619, 89, 106, 75
2023/06/08 00:07:50.754, 90, 105, 76
2023/06/08 00:07:51.874, 89, 107, 77
2023/06/08 00:07:53.010, 89, 103, 79
2023/06/08 00:07:54.146, 87, 107, 79
2023/06/08 00:07:55.266, 86, 108, 74
2023/06/08 00:07:56.402, 88, 106, 75
2023/06/08 00:07:57.522, 91, 108, 77
2023/06/08 00:07:58.658, 90, 105, 78
2023/06/08 00:07:59.778, 89, 106, 77
2023/06/08 00:08:00.914, 92, 106, 78
2023/06/08 00:08:02.034, 93, 103, 78
2023/06/08 00:08:03.170, 103, 105, 76
2023/06/08 00:08:04.306, 87, 118, 75
2023/06/08 00:08:05.425, 89, 113, 74
2023/06/08 00:08:06.562, 87, 105, 78
2023/06/08 00:08:07.681, 88, 105, 77
2023/06/08 00:08:08.817, 88, 106, 77
2023/06/08 00:08:09.937, 88, 106, 77
2023/06/08 00:08:11.073, 89, 104, 77
2023/06/08 00:08:12.193, 87, 107, 74
2023/06/08 00:08:13.329, 89, 104, 79
2023/06/08 00:08:14.465, 87, 105, 77
2023/06/08 00:08:15.585, 88, 104, 75
2023/06/08 00:08:16.721, 88, 106, 75
2023/06/08 00:08:17.840, 86, 104, 77
2023/06/08 00:08:18.977, 90, 107, 75
2023/06/08 00:08:20.097, 88, 104, 74
2023/06/08 00:08:21.232, 89, 104, 75
2023/06/08 00:08:22.353, 89, 107, 78
2023/06/08 00:08:23.489, 85, 104, 76
2023/06/08 00:08:24.624, 88, 106, 77
2023/06/08 00:08:25.744, 87, 106, 77
2023/06/08 00:08:26.880, 87, 106, 78
2023/06/08 00:08:28.000, 87, 105, 78
2023/06/08 00:08:29.136, 88, 107, 75
2023/06/08 00:08:30.256, 89, 108, 75
2023/06/08 00:08:31.392, 89, 105, 78
2023/06/08 00:08:32.512, 89, 105, 78
2023/06/08 00:08:33.648, 88, 103, 73
2023/06/08 00:08:34.768, 90, 104, 76
2023/06/08 00:08:35.904, 87, 103, 80
2023/06/08 00:08:37.024, 85, 104, 79
2023/06/08 00:08:38.160, 87, 104, 79
2023/06/08 00:08:39.296, 87, 105, 77
2023/06/08 00:08:40.415, 88, 104, 76
2023/06/08 00:08:41.551, 88, 104, 78
2023/06/08 00:08:42.671, 88, 108, 75
2023/06/08 00:08:43.807, 86, 103, 76
2023/06/08 00:08:44.927, 88, 103, 77
2023/06/08 00:08:46.063, 84, 103, 73
2023/06/08 00:08:47.183, 89, 106, 74
2023/06/08 00:08:48.319, 87, 102, 74
2023/06/08 00:08:49.455, 90, 104, 75
2023/06/08 00:08:50.575, 87, 104, 76
2023/06/08 00:08:51.711, 88, 106, 72
2023/06/08 00:08:52.831, 88, 104, 78
2023/06/08 00:08:53.967, 89, 103, 80
2023/06/08 00:08:55.087, 90, 103, 72
2023/06/08 00:08:56.222, 88, 103, 78
2023/06/08 00:08:57.342, 88, 104, 75
2023/06/08 00:08:58.477, 89, 105, 77
2023/06/08 00:08:59.614, 88, 107, 77
2023/06/08 00:09:00.734, 87, 104, 75
2023/06/08 00:09:01.870, 85, 104, 74
2023/06/08 00:09:02.990, 87, 103, 76
2023/06/08 00:09:04.126, 87, 103, 76
2023/06/08 00:09:05.246, 86, 105, 77
2023/06/08 00:09:06.382, 88, 102, 76
2023/06/08 00:09:07.502, 91, 105, 77
2023/06/08 00:09:08.638, 88, 104, 75
2023/06/08 00:09:09.774, 89, 101, 78
2023/06/08 00:09:10.894, 86, 105, 73
2023/06/08 00:09:12.030, 89, 102, 74
2023/06/08 00:09:13.149, 90, 104, 76
2023/06/08 00:09:14.285, 88, 102, 76
2023/06/08 00:09:15.405, 90, 102, 77
2023/06/08 00:09:16.541, 88, 103, 77
2023/06/08 00:09:17.661, 86, 103, 76
2023/06/08 00:09:18.797, 90, 102, 72
2023/06/08 00:09:19.916, 88, 104, 75
2023/06/08 00:09:21.053, 88, 104, 75
2023/06/08 00:09:22.189, 88, 102, 75
2023/06/08 00:09:23.309, 87, 104, 75
2023/06/08 00:09:24.445, 88, 106, 75
2023/06/08 00:09:25.565, 87, 105, 72
2023/06/08 00:09:26.701, 88, 105, 77
2023/06/08 00:09:27.821, 90, 101, 76
2023/06/08 00:09:28.957, 87, 102, 75
2023/06/08 00:09:30.076, 86, 105, 75
2023/06/08 00:09:31.212, 88, 105, 75
2023/06/08 00:09:32.332, 92, 104, 75
2023/06/08 00:09:33.468, 88, 103, 76
2023/06/08 00:09:34.604, 86, 103, 74
2023/06/08 00:09:35.724, 88, 106, 75
2023/06/08 00:09:36.860, 89, 103, 77
2023/06/08 00:09:37.980, 88, 104, 74
2023/06/08 00:09:39.116, 86, 105, 73
2023/06/08 00:09:40.236, 87, 103, 77
2023/06/08 00:09:41.372, 86, 101, 73
2023/06/08 00:09:42.492, 86, 105, 74
2023/06/08 00:09:43.628, 87, 102, 76
2023/06/08 00:09:44.748, 84, 106, 77
2023/06/08 00:09:45.883, 88, 106, 77
2023/06/08 00:09:47.019, 87, 103, 78
2023/06/08 00:09:48.139, 88, 105, 76
2023/06/08 00:09:49.275, 85, 103, 79
2023/06/08 00:09:50.395, 89, 106, 77
2023/06/08 00:09:51.531, 88, 103, 75
2023/06/08 00:09:52.651, 86, 102, 76
2023/06/08 00:09:53.787, 86, 102, 76
2023/06/08 00:09:54.907, 86, 106, 75
2023/06/08 00:09:56.042, 90, 102, 75
2023/06/08 00:09:57.179, 88, 102, 76
2023/06/08 00:09:58.298, 87, 103, 77
2023/06/08 00:09:59.435, 88, 103, 77
2023/06/08 00:10:00.555, 86, 105, 77
2023/06/08 00:10:01.690, 90, 102, 75
2023/06/08 00:10:02.810, 91, 105, 77
2023/06/08 00:10:03.946, 89, 104, 77
2023/06/08 00:10:05.066, 89, 102, 75
2023/06/08 00:10:06.202, 86, 102, 77
2023/06/08 00:10:07.337, 85, 104, 80
2023/06/08 00:10:08.458, 88, 106, 77
2023/06/08 00:10:09.594, 86, 102, 77
2023/06/08 00:10:10.714, 90, 105, 75
2023/06/08 00:10:11.850, 89, 108, 77
2023/06/08 00:10:12.970, 89, 112, 79
2023/06/08 00:10:14.106, 93, 106, 77
2023/06/08 00:10:15.226, 92, 108, 77
2023/06/08 00:10:16.361, 91, 111, 77
2023/06/08 00:10:17.497, 99, 111, 82
2023/06/08 00:10:18.617, 95, 116, 79
2023/06/08 00:10:19.753, 96, 118, 81
2023/06/08 00:10:20.873, 95, 121, 84
2023/06/08 00:10:22.008, 97, 115, 86
2023/06/08 00:10:23.129, 100, 120, 86
2023/06/08 00:10:24.265, 101, 127, 87
2023/06/08 00:10:25.401, 105, 130, 89
2023/06/08 00:10:26.521, 104, 131, 85
2023/06/08 00:10:27.657, 102, 129, 89
2023/06/08 00:10:28.777, 101, 135, 91
2023/06/08 00:10:29.913, 108, 132, 93
2023/06/08 00:10:31.033, 103, 134, 89
2023/06/08 00:10:32.169, 113, 172, 99
2023/06/08 00:10:33.305, 110, 139, 94
2023/06/08 00:10:34.425, 109, 142, 93
2023/06/08 00:10:35.560, 112, 150, 95
2023/06/08 00:10:36.696, 111, 145, 101
2023/06/08 00:10:37.816, 117, 158, 104
2023/06/08 00:10:38.952, 127, 147, 107
2023/06/08 00:10:40.088, 113, 156, 104
2023/06/08 00:10:41.208, 119, 143, 97
2023/06/08 00:10:42.344, 121, 146, 102
2023/06/08 00:10:43.464, 115, 150, 101
2023/06/08 00:10:44.600, 118, 154, 104
2023/06/08 00:10:45.736, 115, 157, 111
2023/06/08 00:10:46.856, 115, 155, 110
2023/06/08 00:10:47.991, 123, 160, 105
2023/06/08 00:10:49.128, 119, 159, 107
2023/06/08 00:10:50.248, 120, 163, 113
2023/06/08 00:10:51.384, 120, 157, 106
2023/06/08 00:10:52.519, 123, 163, 105
2023/06/08 00:10:53.639, 123, 167, 106
2023/06/08 00:10:54.775, 121, 167, 115
2023/06/08 00:10:55.910, 129, 165, 109
2023/06/08 00:10:57.031, 123, 169, 109
2023/06/08 00:10:58.166, 128, 170, 111
2023/06/08 00:10:59.303, 130, 174, 108
2023/06/08 00:11:00.423, 124, 173, 113
2023/06/08 00:11:01.559, 126, 163, 113
2023/06/08 00:11:02.695, 129, 169, 110
2023/06/08 00:11:03.815, 128, 180, 115
2023/06/08 00:11:04.950, 124, 163, 110
2023/06/08 00:11:06.087, 125, 171, 112
2023/06/08 00:11:07.206, 129, 179, 117
2023/06/08 00:11:08.342, 130, 165, 124
2023/06/08 00:11:09.462, 127, 178, 115
2023/06/08 00:11:10.598, 128, 173, 113
2023/06/08 00:11:11.734, 136, 184, 122
2023/06/08 00:11:12.854, 135, 178, 116
2023/06/08 00:11:13.990, 134, 174, 114
2023/06/08 00:11:15.126, 133, 179, 119
2023/06/08 00:11:16.245, 133, 184, 115
2023/06/08 00:11:17.382, 135, 173, 117
2023/06/08 00:11:18.518, 133, 176, 118
2023/06/08 00:11:19.638, 132, 180, 117
2023/06/08 00:11:20.774, 135, 181, 116
2023/06/08 00:11:21.909, 133, 190, 114
2023/06/08 00:11:23.029, 134, 180, 118
2023/06/08 00:11:24.165, 131, 194, 115
2023/06/08 00:11:25.301, 136, 181, 122
2023/06/08 00:11:26.421, 136, 190, 118
2023/06/08 00:11:27.557, 135, 210, 119
2023/06/08 00:11:28.693, 137, 197, 122
2023/06/08 00:11:29.813, 137, 188, 118
2023/06/08 00:11:30.949, 133, 184, 115
2023/06/08 00:11:32.069, 134, 186, 118
2023/06/08 00:11:33.205, 138, 193, 123
2023/06/08 00:11:34.341, 138, 223, 121